Regional Weather Roundup
Issued by NWS

Home | Current Version | Previous Version | Text Only | Print | Product List | Glossary Off
Versions: 1 2 3 4 5 6 7 8 9 10 11 12 13 14 15 16 17 18 19 20 21 22 23 24 25 26 27 28 29 30 31 32 33 34 35 36 37 38 39 40 41 42 43 44 45 46 47 48 49 50

000
ASUS43 KLOT 190810
RWRIL

ILLINOIS REGIONAL WEATHER ROUNDUP
NATIONAL WEATHER SERVICE CHICAGO/ROMEOVILLE IL
300 AM CDT SAT APR 19 2014

NOTE: "FAIR" INDICATES FEW OR NO CLOUDS BELOW 12,000 FEET WITH NO
SIGNIFICANT WEATHER AND/OR OBSTRUCTIONS TO VISIBILITY.

* THESE STATIONS ARE NOT UNDER NWS QUALITY CONTROL. THEY ALSO MAY NOT
  REPORT WEATHER SUCH AS PRECIPITATION OR FOG.

ILZ001-002-007-009-015-016-024-190900-
NORTHWEST ILLINOIS

CITY           SKY/WX    TMP DP  RH WIND       PRES   REMARKS
MOLINE         CLEAR     38  31  76 E9        30.32S WCI  31
STERLING*      CLEAR     34  27  75 E7        30.33F WCI  28
SAVANNA*       CLEAR     36  29  74 E6        30.35R WCI  31
$$

ILZ003-004-008-010-011-017-018-190900-
NORTH CENTRAL ILLINOIS

CITY           SKY/WX    TMP DP  RH WIND       PRES   REMARKS
ROCKFORD       PTCLDY    36  25  64 E5        30.37S WCI  32
FREEPORT*      CLEAR     34  30  85 E5        30.36S WCI  30
ROCHELLE*      CLEAR     32  26  78 E6        30.35S WCI  26
DE KALB*       CLEAR     33  25  71 E7        30.35R WCI  27
PERU*          CLEAR     36  31  80 CALM      30.34F
$$

ILZ005-006-012>014-019>023-190900-
NORTHEAST ILLINOIS

CITY           SKY/WX    TMP DP  RH WIND       PRES   REMARKS
CHICAGO-OHARE  CLEAR     38  27  64 NE7       30.36S WCI  33
CHICAGO-MIDWAY PTCLDY    39  30  70 NE9       30.35F WCI  33
AURORA         CLEAR     36  26  67 E7        30.35S WCI  30
LANSING*       CLEAR     36  30  77 NE6       30.34F WCI  32
WAUKEGAN       CLEAR     34  28  79 NE7       30.37S WCI  28
DUPAGE AIRPORT CLEAR     37  28  70 NE9       30.35R WCI  30
KANKAKEE*      CLEAR     34  28  79 NE7       30.34F WCI  28
WHEELING       CLEAR     38  29  70 NE5       30.38S WCI  34
MORRIS*        CLEAR     36  25  65 NE3       30.34S
ROMEOVILLE*    CLEAR     37  27  69 E5        30.35S WCI  33
NORTHERLY ISL    N/A     39  32  76 NE12        N/A  WCI  32
$$

LMZ740>746-190900-
SOUTHERN LAKE MICHIGAN

STATION/POSITION SKY/WX   TEMP    WIND        PRES    VSBY  WAVE
                          AIR SEA DIR/SP/G                  HT/PER
                          (F)     (DEG/KT/KT) (MB)    (MI)  (FT/S)
WAUKEGAN HARBOR            37      50/ 11/ 13 1029.5F
HARRISON CRIB              38      50/ 12/ 15   N/A
BURNHAM HARBOR             39      40/ 11/ 14   N/A
CALUMET HARBOR             38      40/  8/ 12 1028.4F
MICHIGAN CITY              39      30/  8/  9   N/A
$$

ILZ025>027-034>036-040-047-049-050-058-095>099-190900-
WEST-CENTRAL ILLINOIS

CITY           SKY/WX    TMP DP  RH WIND       PRES   REMARKS
QUINCY         PTCLDY    49  29  46 E9        30.24F
GALESBURG*     CLEAR     39  33  78 E8        30.30S WCI  34
MACOMB*        CLEAR     42  36  80 E7        30.31S
JACKSONVILLE*  MOCLDY    44  37  76 NE10      30.29S
PITTSFIELD*    MOCLDY    49  33  53 E7        30.27S
$$

ILZ028>032-037-038-041>044-048-051>054-059>061-190900-
CENTRAL ILLINOIS

CITY           SKY/WX    TMP DP  RH WIND       PRES   REMARKS
PONTIAC        PTCLDY    37  28  70 NE8       30.33S WCI  31
BLOOMINGTON    PTCLDY    34  27  76 NE10      30.32F WCI  26
DECATUR        MOCLDY    40  35  83 NE7       30.30S
PEORIA         CLEAR     41  28  60 E10       30.31F
LACON*         CLEAR     36  31  81 E5        30.32F WCI  32
LINCOLN*       MOCLDY    42  32  68 E8        30.31S
SPRINGFIELD    MOCLDY    44  34  67 NE10      30.29S
TAYLORVILLE    MOCLDY    45  32  61 E9        30.29R
$$

ILZ033-039-045-046-055>057-062-063-190900-
EAST-CENTRAL ILLINOIS

CITY           SKY/WX    TMP DP  RH WIND       PRES   REMARKS
CHAMPAIGN      PTCLDY    42  30  62 NE14      30.29R
RANTOUL*       PTCLDY    41  27  57 CALM      30.32S
MATTOON        PTCLDY    43  33  68 NE7       30.28R
PARIS*         CLEAR     42  32  66 NE6       30.30R
$$

ILZ079-100>102-190900-
SOUTHWEST ILLINOIS

CITY           SKY/WX    TMP DP  RH WIND       PRES   REMARKS
ALTON          PTCLDY    49  39  67 NE3       30.25F
BELLEVILLE     CLEAR     47  43  88 CALM      30.24S
CAHOKIA*       CLEAR     45  43  93 CALM      30.24F
SPARTA*        CLEAR     48  43  81 CALM      30.25S
$$

ILZ064>066-069>071-074>076-080>082-084>086-088>090-092>094-190900-
SOUTH-CENTRAL ILLINOIS

CITY           SKY/WX    TMP DP  RH WIND       PRES   REMARKS
CARBONDALE     CLEAR     46  43  89 CALM      30.23S
CAIRO*         CLEAR     53  44  70 CALM      30.21S
MARION         CLEAR     48  45  87 CALM      30.23S
MT. VERNON     CLEAR     52  36  54 N7        30.25R
CENTRALIA*       N/A     50  40  68 CALM      30.24F
SALEM*         CLEAR     53  42  67 E5        30.25S
METROPOLIS*    CLEAR     53  40  63 N3        30.20F
$$

ILZ067-068-072-073-078-083-087-091-190900-
SOUTHEAST ILLINOIS

CITY           SKY/WX    TMP DP  RH WIND       PRES   REMARKS
FAIRFIELD*     CLEAR     52  45  76 N5        30.24S
HARRISBURG*    CLEAR     51  42  72 N5        30.23F
ROBINSON*      CLEAR     47  41  77 N6        30.27S
CARMI*         CLEAR     54  45  72 N7        30.22S
$$

ABBREVIATIONS USED IN REMARKS
   TC - TEMPERATURE IN CELSIUS
  WCI - WIND CHILL INDEX
   HX - HEAT INDEX
  VSB - VISIBILITY
$$




USA.gov is the U.S. government's official web portal to all federal, state and local government web resources and services.